Flag for Germany Weather past 2 weeks in Dresden, Saxony, Germany

Now
59 °F

Partly sunny.


Feels Like: 56 °F
Forecast: 47 / 64 °F
Wind: 17 mph from East

Location: Dresden-Klotzsche


UV Index: 0 (Low)

Visibility: N/A


Pressure: 29.80 "Hg

Humidity: 55%

Dew point: 43 °F

Location of DresdenLocation

Historic Weather in Dresden

°F

Dresden temperature yesterday

Maximum temperature yesterday: 64 °F (at 4:20 PM)
Minimum temperature yesterday: 34 °F (at 5:20 AM)
Average temperature yesterday: 49 °F

Past Weeks' High & Low Weather Summary

 TemperatureHumidityPressure
High68 °F (Apr 7, 2:20 PM)100% (Apr 16, 3:50 AM)30.39 "Hg (Apr 16, 3:50 AM)
Low30 °F (Apr 17, 4:50 AM)30% (Apr 17, 3:20 PM)29.77 "Hg (Apr 14, 6:20 AM)
Average49 °F71%30.02 "Hg
* Reported Apr 5 5:20 PM — Apr 20 5:50 PM, Dresden, Weather by CustomWeather, © 2014

Note: Actual official high and low records may vary slightly from our data, if they occured in-between our weather recording intervals... More about our weather records

Advertising

Historic Weather Conditions — Data for Previous 24 hours

 ConditionsComfort  
Time TempWeatherWind HumidityBarometerVisibility
5:50 PM
Apr 20
61 °FPartly sunny.16 mph55%29.80 "HgN/A
5:20 PM61 °FPartly sunny.18 mph52%29.80 "HgN/A
4:50 PM63 °FPartly sunny.16 mph49%29.80 "HgN/A
4:20 PM63 °FPartly sunny.17 mph49%29.80 "HgN/A
3:50 PM63 °FPartly sunny.18 mph52%29.80 "HgN/A
3:20 PM63 °FPartly sunny.17 mph52%29.83 "HgN/A
2:50 PM63 °FScattered clouds.17 mph52%29.83 "HgN/A
2:20 PM61 °FScattered clouds.17 mph55%29.83 "HgN/A
1:50 PM63 °FScattered clouds.12 mph56%29.83 "HgN/A
1:20 PM63 °FScattered clouds.10 mph52%29.83 "HgN/A
12:50 PM61 °FScattered clouds.15 mph59%29.83 "HgN/A
12:20 PM61 °FScattered clouds.14 mph59%29.86 "HgN/A
11:50 AM59 °FScattered clouds.12 mph59%29.86 "HgN/A
11:20 AM59 °FPassing clouds.16 mph59%29.86 "HgN/A
10:50 AM59 °FPassing clouds.15 mph63%29.86 "HgN/A
10:20 AM57 °FPassing clouds.15 mph63%29.86 "HgN/A
9:50 AM57 °FPassing clouds.14 mph67%29.86 "HgN/A
9:20 AM55 °FPassing clouds.10 mph72%29.86 "HgN/A
8:50 AM55 °FPassing clouds.13 mph72%29.86 "HgN/A
8:20 AM54 °FSunny.12 mph77%29.86 "Hg10 mi
7:50 AM52 °FSunny.13 mph82%29.86 "Hg10 mi
7:20 AM52 °FSunny.12 mph77%29.86 "Hg10 mi
6:50 AM50 °FClear.10 mph82%29.83 "Hg10 mi
6:20 AM50 °FClear.12 mph82%29.83 "Hg10 mi
5:50 AM52 °FClear.14 mph77%29.83 "Hg10 mi
5:20 AM52 °FClear.12 mph77%29.83 "Hg10 mi
4:50 AM52 °FClear.10 mph77%29.83 "Hg10 mi
4:20 AM52 °FClear.9 mph77%29.83 "Hg10 mi
3:50 AM52 °FClear.7 mph77%29.86 "Hg10 mi
3:20 AM54 °FClear.7 mph72%29.86 "Hg10 mi
2:50 AM55 °FClear.8 mph67%29.86 "Hg10 mi
2:20 AM55 °FClear.8 mph67%29.86 "Hg10 mi
1:50 AM57 °FClear.13 mph63%29.86 "Hg10 mi
1:20 AM57 °FClear.12 mph63%29.89 "Hg10 mi
12:50 AM57 °FClear.10 mph63%29.89 "Hg10 mi
12:20 AM57 °FClear.8 mph63%29.89 "Hg10 mi
11:50 PM
Apr 19
57 °FClear.7 mph63%29.89 "Hg10 mi
11:20 PM57 °FClear.5 mph63%29.89 "Hg10 mi
10:50 PM59 °FClear.3 mph59%29.89 "Hg10 mi
10:20 PM59 °FClear.6 mph59%29.89 "Hg10 mi
9:50 PM59 °FClear.7 mph63%29.89 "Hg10 mi
9:20 PM59 °FClear.6 mph63%29.89 "Hg10 mi
8:50 PM59 °FSunny.10 mph63%29.89 "Hg10 mi
8:20 PM59 °FSunny.9 mph68%29.89 "Hg10 mi
7:50 PM61 °FSunny.7 mph63%29.89 "Hg10 mi
7:20 PM61 °FSunny.7 mph72%29.89 "Hg10 mi
Weather by CustomWeather, © 2014

See weather overview